,,,PA_Meas_PMT16A,,PR_Meas_QMR101_102,,RH_Meas_QMH101,,SR_Meas_QMS101,,TA_Meas_QMH101,,GenWind,,GenWind,
date,time,status,PA,status,PR,status,RH,status,SR,status,TA,status,DirAvg,status,SpdAvg,
2008-12-31, 00:00:05,VALID,1008.23,VALID,0,VALID,94.6508,VALID,0,VALID,23.8304,VALID,355,VALID,0,
2008-12-31, 00:01:05,VALID,1008.21,VALID,0,VALID,94.6661,VALID,0.105969,VALID,23.8091,VALID,355,VALID,0,
2008-12-31, 00:02:05,VALID,1008.2,VALID,0,VALID,94.6814,VALID,0.105969,VALID,23.8091,VALID,355,VALID,0,
2008-12-31, 00:03:05,VALID,1008.22,VALID,0,VALID,94.6814,VALID,0.105969,VALID,23.8109,VALID,355,VALID,0,
2008-12-31, 00:04:05,VALID,1008.23,VALID,0,VALID,94.6814,VALID,0.105969,VALID,23.7896,VALID,355,VALID,0,
2008-12-31, 00:05:05,VALID,1008.22,VALID,0,VALID,94.6814,VALID,0.105969,VALID,23.7507,VALID,355,VALID,0,
2008-12-31, 00:06:05,VALID,1008.22,VALID,0,VALID,94.7042,VALID,0.105969,VALID,23.7701,VALID,355,VALID,0,
2008-12-31, 00:07:05,VALID,1008.24,VALID,0,VALID,94.7042,VALID,0.105969,VALID,23.7507,VALID,355,VALID,0,
2008-12-31, 00:08:05,VALID,1008.2,VALID,0,VALID,94.7347,VALID,0,VALID,23.7525,VALID,355,VALID,0,
2008-12-31, 00:09:05,VALID,1008.22,VALID,0,VALID,94.7195,VALID,0.105969,VALID,23.772,VALID,355,VALID,0,
2008-12-31, 00:10:05,VALID,1008.23,VALID,0,VALID,94.7347,VALID,0.105969,VALID,23.7701,VALID,355,VALID,0,
2008-12-31, 00:11:05,VALID,1008.18,VALID,0,VALID,94.7347,VALID,0.105969,VALID,23.7507,VALID,355,VALID,0,
2008-12-31, 00:12:05,VALID,1008.2,VALID,0,VALID,94.7347,VALID,0.105969,VALID,23.7312,VALID,355,VALID,0,
2008-12-31, 00:13:05,VALID,1008.19,VALID,0,VALID,94.75,VALID,0.105969,VALID,23.7117,VALID,355,VALID,0,
2008-12-31, 00:14:05,VALID,1008.22,VALID,0,VALID,94.75,VALID,0,VALID,23.7117,VALID,355,VALID,0,
2008-12-31, 00:15:05,VALID,1008.2,VALID,0,VALID,94.7805,VALID,0.105969,VALID,23.7117,VALID,355,VALID,0,
2008-12-31, 00:16:05,VALID,1008.22,VALID,0,VALID,94.7729,VALID,0,VALID,23.7117,VALID,355,VALID,0,
2008-12-31, 00:17:05,VALID,1008.19,VALID,0,VALID,94.7729,VALID,0.105969,VALID,23.7312,VALID,355,VALID,0,
2008-12-31, 00:18:05,VALID,1008.2,VALID,0,VALID,94.7805,VALID,0,VALID,23.6922,VALID,355,VALID,0,
2008-12-31, 00:19:05,VALID,1008.21,VALID,0,VALID,94.7881,VALID,0,VALID,23.6922,VALID,355,VALID,0,
2008-12-31, 00:20:05,VALID,1008.21,VALID,0,VALID,94.7957,VALID,0.105969,VALID,23.6922,VALID,355,VALID,0,
2008-12-31, 00:21:05,VALID,1008.22,VALID,0,VALID,94.7957,VALID,0.105969,VALID,23.7135,VALID,355,VALID,0,
2008-12-31, 00:22:05,VALID,1008.21,VALID,0,VALID,94.7957,VALID,0.105969,VALID,23.6922,VALID,355,VALID,0,
2008-12-31, 00:23:05,VALID,1008.21,VALID,0,VALID,94.811,VALID,0.105969,VALID,23.6922,VALID,355,VALID,0,
2008-12-31, 00:24:05,VALID,1008.24,VALID,0,VALID,94.811,VALID,0.105969,VALID,23.6727,VALID,355,VALID,0,
2008-12-31, 00:25:05,VALID,1008.27,VALID,0,VALID,94.811,VALID,0.105969,VALID,23.694,VALID,355,VALID,0,
2008-12-31, 00:26:05,VALID,1008.28,VALID,0,VALID,94.8186,VALID,0,VALID,23.694,VALID,355,VALID,0,
2008-12-31, 00:27:05,VALID,1008.26,VALID,0,VALID,94.8415,VALID,0.105969,VALID,23.6532,VALID,355,VALID,0,
2008-12-31, 00:28:05,VALID,1008.28,VALID,0,VALID,94.8262,VALID,0,VALID,23.6532,VALID,355,VALID,0,
2008-12-31, 00:29:05,VALID,1008.29,VALID,0,VALID,94.8262,VALID,0,VALID,23.6532,VALID,355,VALID,0,
2008-12-31, 00:30:05,VALID,1008.31,VALID,0,VALID,94.8415,VALID,0,VALID,23.6532,VALID,355,VALID,0,
2008-12-31, 00:31:05,VALID,1008.31,VALID,0,VALID,94.8491,VALID,0,VALID,23.6532,VALID,355,VALID,0,
2008-12-31, 00:32:05,VALID,1008.31,VALID,0,VALID,94.8568,VALID,0,VALID,23.655,VALID,355,VALID,0,
2008-12-31, 00:33:05,VALID,1008.28,VALID,0,VALID,94.8568,VALID,0.105969,VALID,23.6338,VALID,355,VALID,0,
2008-12-31, 00:34:05,VALID,1008.29,VALID,0,VALID,94.8644,VALID,0,VALID,23.6532,VALID,355,VALID,0,
2008-12-31, 00:35:05,VALID,1008.29,VALID,0,VALID,94.8568,VALID,0,VALID,23.6338,VALID,355,VALID,0,
2008-12-31, 00:36:05,VALID,1008.27,VALID,0,VALID,94.8644,VALID,0.105969,VALID,23.6338,VALID,355,VALID,0,
2008-12-31, 00:37:05,VALID,1008.24,VALID,0,VALID,94.872,VALID,0.105969,VALID,23.6338,VALID,355,VALID,0,
2008-12-31, 00:38:05,VALID,1008.27,VALID,0,VALID,94.872,VALID,0.105969,VALID,23.6338,VALID,355,VALID,0,
2008-12-31, 00:39:05,VALID,1008.24,VALID,0,VALID,94.8796,VALID,0.105969,VALID,23.6338,VALID,355,VALID,0,
2008-12-31, 00:40:05,VALID,1008.22,VALID,0,VALID,94.9025,VALID,0,VALID,23.6356,VALID,355,VALID,0,
2008-12-31, 00:41:05,VALID,1008.23,VALID,0,VALID,94.9025,VALID,0,VALID,23.6356,VALID,355,VALID,0,
2008-12-31, 00:42:05,VALID,1008.21,VALID,0,VALID,94.9025,VALID,0,VALID,23.655,VALID,355,VALID,0,
2008-12-31, 00:43:05,VALID,1008.19,VALID,0,VALID,94.9101,VALID,0,VALID,23.6356,VALID,355,VALID,0,
2008-12-31, 00:44:05,VALID,1008.17,VALID,0,VALID,94.9025,VALID,0,VALID,23.6356,VALID,355,VALID,0,
2008-12-31, 00:45:05,VALID,1008.16,VALID,0,VALID,94.9101,VALID,0,VALID,23.655,VALID,355,VALID,0,
2008-12-31, 00:46:05,VALID,1008.16,VALID,0,VALID,94.9406,VALID,0,VALID,23.655,VALID,355,VALID,0,
2008-12-31, 00:47:05,VALID,1008.16,VALID,0,VALID,94.9406,VALID,0,VALID,23.6745,VALID,355,VALID,0,
2008-12-31, 00:48:05,VALID,1008.16,VALID,0,VALID,94.9406,VALID,0,VALID,23.6356,VALID,355,VALID,0,
2008-12-31, 00:49:05,VALID,1008.14,VALID,0,VALID,94.9406,VALID,0,VALID,23.655,VALID,355,VALID,0,
2008-12-31, 00:50:05,VALID,1008.12,VALID,0,VALID,94.9483,VALID,0,VALID,23.6356,VALID,355,VALID,0,
2008-12-31, 00:51:05,VALID,1008.13,VALID,0,VALID,94.9559,VALID,0,VALID,23.655,VALID,355,VALID,0,
2008-12-31, 00:52:05,VALID,1008.11,VALID,0,VALID,94.9635,VALID,0,VALID,23.655,VALID,355,VALID,0,
2008-12-31, 00:53:05,VALID,1008.12,VALID,0,VALID,94.9483,VALID,0,VALID,23.655,VALID,355,VALID,0,
2008-12-31, 00:54:05,VALID,1008.11,VALID,0,VALID,94.9635,VALID,0,VALID,23.655,VALID,355,VALID,0,
2008-12-31, 00:55:05,VALID,1008.11,VALID,0,VALID,94.9864,VALID,0.105969,VALID,23.6338,VALID,355,VALID,0,
2008-12-31, 00:56:05,VALID,1008.1,VALID,0,VALID,94.9559,VALID,0,VALID,23.6338,VALID,355,VALID,0,
2008-12-31, 00:57:05,VALID,1008.08,VALID,0,VALID,94.9788,VALID,0,VALID,23.655,VALID,355,VALID,0,
2008-12-31, 00:58:05,VALID,1008.09,VALID,0,VALID,94.9864,VALID,0.105969,VALID,23.6338,VALID,355,VALID,0,
2008-12-31, 00:59:05,VALID,1008.09,VALID,0,VALID,95.0016,VALID,0.105969,VALID,23.6143,VALID,355,VALID,0,
2008-12-31, 01:00:05,VALID,1008.1,VALID,0,VALID,95.0093,VALID,0.105969,VALID,23.632,VALID,355,VALID,0,
2008-12-31, 01:01:05,VALID,1008.07,VALID,0,VALID,95.0093,VALID,0.105969,VALID,23.6338,VALID,355,VALID,0,
2008-12-31, 01:02:05,VALID,1008.05,VALID,0,VALID,95.0093,VALID,0,VALID,23.6338,VALID,355,VALID,0,
2008-12-31, 01:03:05,VALID,1008.07,VALID,0,VALID,95.0093,VALID,0,VALID,23.6532,VALID,355,VALID,0,
2008-12-31, 01:04:05,VALID,1008.04,VALID,0,VALID,95.0016,VALID,0.105969,VALID,23.6532,VALID,355,VALID,0,
2008-12-31, 01:05:05,VALID,1008.05,VALID,0,VALID,95.0245,VALID,0.105969,VALID,23.6143,VALID,355,VALID,0,
2008-12-31, 01:06:05,VALID,1008.05,VALID,0,VALID,95.0245,VALID,0.105969,VALID,23.6338,VALID,355,VALID,0,
2008-12-31, 01:07:05,VALID,1008.03,VALID,0,VALID,95.0093,VALID,0.105969,VALID,23.6338,VALID,355,VALID,0,
2008-12-31, 01:08:05,VALID,1008.03,VALID,0,VALID,95.0321,VALID,0.105969,VALID,23.6532,VALID,355,VALID,0,
2008-12-31, 01:09:05,VALID,1008.03,VALID,0,VALID,95.0321,VALID,0,VALID,23.6338,VALID,355,VALID,0,
2008-12-31, 01:10:05,VALID,1008.05,VALID,0,VALID,95.0321,VALID,0,VALID,23.655,VALID,355,VALID,0,
2008-12-31, 01:11:05,VALID,1008.05,VALID,0,VALID,95.0398,VALID,0,VALID,23.6338,VALID,355,VALID,0,
2008-12-31, 01:12:05,VALID,1008.02,VALID,0,VALID,95.0169,VALID,0.105969,VALID,23.6338,VALID,355,VALID,0,
2008-12-31, 01:13:05,VALID,1007.97,VALID,0,VALID,95.0245,VALID,0,VALID,23.6338,VALID,355,VALID,0,
2008-12-31, 01:14:05,VALID,1007.96,VALID,0,VALID,95.0245,VALID,0.105969,VALID,23.6143,VALID,355,VALID,0,
2008-12-31, 01:15:05,VALID,1007.93,VALID,0,VALID,95.0245,VALID,0,VALID,23.6338,VALID,355,VALID,0,
2008-12-31, 01:16:05,VALID,1007.92,VALID,0,VALID,95.0398,VALID,0,VALID,23.6143,VALID,355,VALID,0,
2008-12-31, 01:17:05,VALID,1007.89,VALID,0,VALID,95.0169,VALID,0,VALID,23.6143,VALID,355,VALID,0,
2008-12-31, 01:18:05,VALID,1007.87,VALID,0,VALID,95.0321,VALID,0,VALID,23.6143,VALID,355,VALID,0,
2008-12-31, 01:19:05,VALID,1007.83,VALID,0,VALID,95.0321,VALID,0,VALID,23.6143,VALID,355,VALID,0,
2008-12-31, 01:20:05,VALID,1007.84,VALID,0,VALID,95.0093,VALID,0,VALID,23.6338,VALID,355,VALID,0,
2008-12-31, 01:21:05,VALID,1007.83,VALID,0,VALID,95.0093,VALID,0.105969,VALID,23.6338,VALID,355,VALID,0,
2008-12-31, 01:22:05,VALID,1007.82,VALID,0,VALID,95.0245,VALID,0,VALID,23.6338,VALID,355,VALID,0,
2008-12-31, 01:23:05,VALID,1007.79,VALID,0,VALID,95.0016,VALID,0.105969,VALID,23.6338,VALID,355,VALID,0,
2008-12-31, 01:24:05,VALID,1007.81,VALID,0,VALID,95.0169,VALID,0,VALID,23.6125,VALID,355,VALID,0,
2008-12-31, 01:25:05,VALID,1007.81,VALID,0,VALID,95.0169,VALID,0,VALID,23.6338,VALID,355,VALID,0,
2008-12-31, 01:26:05,VALID,1007.78,VALID,0,VALID,95.0321,VALID,0,VALID,23.6338,VALID,355,VALID,0,
2008-12-31, 01:27:05,VALID,1007.78,VALID,0,VALID,95.0016,VALID,0,VALID,23.6143,VALID,355,VALID,0,
2008-12-31, 01:28:05,VALID,1007.75,VALID,0,VALID,95.0169,VALID,0.105969,VALID,23.6338,VALID,355,VALID,0,
2008-12-31, 01:29:05,VALID,1007.73,VALID,0,VALID,95.0169,VALID,0.105969,VALID,23.6338,VALID,355,VALID,0,
2008-12-31, 01:30:05,VALID,1007.72,VALID,0,VALID,95.0093,VALID,0.105969,VALID,23.6338,VALID,355,VALID,0,
2008-12-31, 01:31:05,VALID,1007.71,VALID,0,VALID,95.0169,VALID,0.105969,VALID,23.6338,VALID,355,VALID,0,
2008-12-31, 01:32:05,VALID,1007.7,VALID,0,VALID,95.0093,VALID,0,VALID,23.6338,VALID,355,VALID,0,
2008-12-31, 01:33:05,VALID,1007.71,VALID,0,VALID,95.0093,VALID,0.105969,VALID,23.6143,VALID,355,VALID,0,
2008-12-31, 01:34:05,VALID,1007.71,VALID,0,VALID,95.0016,VALID,0.105969,VALID,23.6143,VALID,355,VALID,0,
2008-12-31, 01:35:05,VALID,1007.73,VALID,0,VALID,95.0016,VALID,0,VALID,23.5948,VALID,355,VALID,0,
2008-12-31, 01:36:05,VALID,1007.69,VALID,0,VALID,94.994,VALID,0.105969,VALID,23.6143,VALID,355,VALID,0,
2008-12-31, 01:37:05,VALID,1007.69,VALID,0,VALID,95.0169,VALID,0.105969,VALID,23.5948,VALID,355,VALID,0,
2008-12-31, 01:38:05,VALID,1007.69,VALID,0,VALID,95.0016,VALID,0.105969,VALID,23.6143,VALID,355,VALID,0,
2008-12-31, 01:39:05,VALID,1007.68,VALID,0,VALID,94.994,VALID,0.105969,VALID,23.5948,VALID,355,VALID,0,
2008-12-31, 01:40:05,VALID,1007.65,VALID,0,VALID,94.994,VALID,0,VALID,23.5966,VALID,355,VALID,0,
2008-12-31, 01:41:05,VALID,1007.65,VALID,0,VALID,94.994,VALID,0,VALID,23.5966,VALID,355,VALID,0,
2008-12-31, 01:42:05,VALID,1007.66,VALID,0,VALID,95.0093,VALID,0,VALID,23.5771,VALID,355,VALID,0,
2008-12-31, 01:43:05,VALID,1007.63,VALID,0,VALID,95.0169,VALID,0,VALID,23.5771,VALID,355,VALID,0,
2008-12-31, 01:44:05,VALID,1007.63,VALID,0,VALID,94.994,VALID,0,VALID,23.5771,VALID,355,VALID,0,
2008-12-31, 01:45:05,VALID,1007.63,VALID,0,VALID,94.9788,VALID,0,VALID,23.5771,VALID,355,VALID,0,
2008-12-31, 01:46:05,VALID,1007.62,VALID,0,VALID,95.0016,VALID,0,VALID,23.5771,VALID,355,VALID,0,
2008-12-31, 01:47:05,VALID,1007.63,VALID,0,VALID,95.0093,VALID,0,VALID,23.5576,VALID,355,VALID,0,
2008-12-31, 01:48:05,VALID,1007.58,VALID,0,VALID,94.994,VALID,0,VALID,23.5771,VALID,355,VALID,0,
2008-12-31, 01:49:05,VALID,1007.53,VALID,0,VALID,95.0245,VALID,0,VALID,23.5966,VALID,355,VALID,0,
2008-12-31, 01:50:05,VALID,1007.49,VALID,0,VALID,95.0169,VALID,0,VALID,23.5966,VALID,355,VALID,0,
2008-12-31, 01:51:05,VALID,1007.48,VALID,0,VALID,95.0245,VALID,0,VALID,23.6161,VALID,355,VALID,0,
2008-12-31, 01:52:05,VALID,1007.5,VALID,0,VALID,95.0398,VALID,0,VALID,23.5966,VALID,355,VALID,0,
2008-12-31, 01:53:05,VALID,1007.47,VALID,0,VALID,95.0321,VALID,0,VALID,23.6161,VALID,355,VALID,0,
2008-12-31, 01:54:05,VALID,1007.5,VALID,0,VALID,95.0245,VALID,0,VALID,23.6161,VALID,355,VALID,0,
2008-12-31, 01:55:05,VALID,1007.45,VALID,0,VALID,95.0321,VALID,0.105969,VALID,23.5948,VALID,355,VALID,0,
2008-12-31, 01:56:05,VALID,1007.45,VALID,0,VALID,95.0398,VALID,0,VALID,23.5948,VALID,355,VALID,0,
2008-12-31, 01:57:05,VALID,1007.51,VALID,0,VALID,95.0245,VALID,0.105969,VALID,23.5948,VALID,355,VALID,0,
2008-12-31, 01:58:05,VALID,1007.49,VALID,0,VALID,95.0474,VALID,0,VALID,23.5948,VALID,355,VALID,0,
2008-12-31, 01:59:05,VALID,1007.49,VALID,0,VALID,95.0245,VALID,0.105969,VALID,23.5948,VALID,355,VALID,0,
2008-12-31, 02:00:05,VALID,1007.5,VALID,0,VALID,95.0398,VALID,0.105969,VALID,23.5753,VALID,355,VALID,0,
2008-12-31, 02:01:05,VALID,1007.51,VALID,0,VALID,95.0245,VALID,0,VALID,23.5753,VALID,355,VALID,0,
2008-12-31, 02:02:05,VALID,1007.52,VALID,0,VALID,95.0321,VALID,0.105969,VALID,23.5753,VALID,355,VALID,0,
2008-12-31, 02:03:05,VALID,1007.49,VALID,0,VALID,95.0398,VALID,0.105969,VALID,23.5948,VALID,355,VALID,0,
2008-12-31, 02:04:05,VALID,1007.45,VALID,0,VALID,95.055,VALID,0.105969,VALID,23.5948,VALID,355,VALID,0,
2008-12-31, 02:05:05,VALID,1007.47,VALID,0,VALID,95.0474,VALID,0.105969,VALID,23.6338,VALID,355,VALID,0,
2008-12-31, 02:06:05,VALID,1007.44,VALID,0,VALID,95.0474,VALID,0.105969,VALID,23.6143,VALID,355,VALID,0,
2008-12-31, 02:07:05,VALID,1007.46,VALID,0,VALID,95.055,VALID,0.105969,VALID,23.6143,VALID,355,VALID,0,
2008-12-31, 02:08:05,VALID,1007.41,VALID,0,VALID,95.0703,VALID,0.105969,VALID,23.6143,VALID,355,VALID,0,
2008-12-31, 02:09:05,VALID,1007.44,VALID,0,VALID,95.0779,VALID,0.105969,VALID,23.6143,VALID,355,VALID,0,
2008-12-31, 02:10:05,VALID,1007.44,VALID,0,VALID,95.0779,VALID,0.105969,VALID,23.5948,VALID,355,VALID,0,
2008-12-31, 02:11:05,VALID,1007.43,VALID,0,VALID,95.0474,VALID,0.105969,VALID,23.6143,VALID,355,VALID,0,
2008-12-31, 02:12:05,VALID,1007.42,VALID,0,VALID,95.0703,VALID,0.105969,VALID,23.6143,VALID,355,VALID,0,
2008-12-31, 02:13:05,VALID,1007.42,VALID,0,VALID,95.0779,VALID,0.105969,VALID,23.6143,VALID,355,VALID,0,
2008-12-31, 02:14:05,VALID,1007.43,VALID,0,VALID,95.055,VALID,0.105969,VALID,23.6143,VALID,355,VALID,0,
2008-12-31, 02:15:05,VALID,1007.4,VALID,0,VALID,95.0779,VALID,0.105969,VALID,23.6338,VALID,355,VALID,0,
2008-12-31, 02:16:05,VALID,1007.41,VALID,0,VALID,95.0703,VALID,0,VALID,23.6143,VALID,355,VALID,0,
2008-12-31, 02:17:05,VALID,1007.4,VALID,0,VALID,95.0626,VALID,0.105969,VALID,23.6143,VALID,355,VALID,0,
2008-12-31, 02:18:05,VALID,1007.39,VALID,0,VALID,95.0779,VALID,0.105969,VALID,23.6143,VALID,355,VALID,0,
2008-12-31, 02:19:05,VALID,1007.37,VALID,0,VALID,95.0779,VALID,0.105969,VALID,23.632,VALID,355,VALID,0,
2008-12-31, 02:20:05,VALID,1007.37,VALID,0,VALID,95.0855,VALID,0.105969,VALID,23.6532,VALID,355,VALID,0,
2008-12-31, 02:21:05,VALID,1007.34,VALID,0,VALID,95.0855,VALID,0.105969,VALID,23.6532,VALID,355,VALID,0,
2008-12-31, 02:22:05,VALID,1007.35,VALID,0,VALID,95.0779,VALID,0.105969,VALID,23.6727,VALID,355,VALID,0,
2008-12-31, 02:23:05,VALID,1007.32,VALID,0,VALID,95.0855,VALID,0.105969,VALID,23.6338,VALID,355,VALID,0,
2008-12-31, 02:24:05,VALID,1007.3,VALID,0,VALID,95.0626,VALID,0.105969,VALID,23.6143,VALID,355,VALID,0,
2008-12-31, 02:25:05,VALID,1007.32,VALID,0,VALID,95.0626,VALID,0,VALID,23.6373,VALID,355,VALID,0,
2008-12-31, 02:26:05,VALID,1007.29,VALID,0,VALID,95.055,VALID,0,VALID,23.6161,VALID,355,VALID,0,
2008-12-31, 02:27:05,VALID,1007.28,VALID,0,VALID,95.055,VALID,0,VALID,23.6373,VALID,355,VALID,0,
2008-12-31, 02:28:05,VALID,1007.24,VALID,0,VALID,95.0474,VALID,0,VALID,23.5966,VALID,355,VALID,0,
2008-12-31, 02:29:05,VALID,1007.25,VALID,0,VALID,95.0474,VALID,0,VALID,23.5966,VALID,355,VALID,0,
2008-12-31, 02:30:05,VALID,1007.23,VALID,0,VALID,95.0398,VALID,0,VALID,23.5771,VALID,355,VALID,0,
2008-12-31, 02:31:05,VALID,1007.26,VALID,0,VALID,95.0321,VALID,0,VALID,23.5771,VALID,355,VALID,0,
2008-12-31, 02:32:04,VALID,1007.25,VALID,0,VALID,95.0321,VALID,0,VALID,23.5576,VALID,355,VALID,0,
2008-12-31, 02:33:04,VALID,1007.29,VALID,0,VALID,95.0169,VALID,0,VALID,23.5576,VALID,355,VALID,0,
2008-12-31, 02:34:04,VALID,1007.28,VALID,0,VALID,95.0093,VALID,0,VALID,23.5381,VALID,355,VALID,0,
2008-12-31, 02:35:04,VALID,1007.26,VALID,0,VALID,94.9788,VALID,0,VALID,23.5381,VALID,355,VALID,0,
2008-12-31, 02:36:04,VALID,1007.26,VALID,0,VALID,94.9864,VALID,0,VALID,23.4992,VALID,355,VALID,0,
2008-12-31, 02:37:04,VALID,1007.25,VALID,0,VALID,94.9788,VALID,0,VALID,23.4992,VALID,355,VALID,0,
2008-12-31, 02:38:04,VALID,1007.26,VALID,0,VALID,94.9635,VALID,0,VALID,23.4797,VALID,355,VALID,0,
2008-12-31, 02:39:04,VALID,1007.26,VALID,0,VALID,94.9559,VALID,0,VALID,23.4602,VALID,355,VALID,0,
2008-12-31, 02:40:04,VALID,1007.26,VALID,0,VALID,94.9635,VALID,0,VALID,23.4602,VALID,355,VALID,0,
2008-12-31, 02:41:04,VALID,1007.23,VALID,0,VALID,94.9483,VALID,0,VALID,23.4602,VALID,355,VALID,0,
2008-12-31, 02:42:04,VALID,1007.22,VALID,0,VALID,94.9711,VALID,0,VALID,23.4602,VALID,355,VALID,0,
2008-12-31, 02:43:04,VALID,1007.21,VALID,0,VALID,94.9483,VALID,0,VALID,23.4815,VALID,355,VALID,0,
2008-12-31, 02:44:04,VALID,1007.2,VALID,0,VALID,94.9559,VALID,0,VALID,23.4212,VALID,355,VALID,0,
2008-12-31, 02:45:04,VALID,1007.16,VALID,0,VALID,94.9559,VALID,0,VALID,23.4407,VALID,355,VALID,0,
2008-12-31, 02:46:04,VALID,1007.18,VALID,0,VALID,94.9406,VALID,0,VALID,23.462,VALID,355,VALID,0,
2008-12-31, 02:47:04,VALID,1007.17,VALID,0,VALID,94.9483,VALID,0,VALID,23.4017,VALID,355,VALID,0,
2008-12-31, 02:48:04,VALID,1007.16,VALID,0,VALID,94.9483,VALID,0,VALID,23.4017,VALID,355,VALID,0,
2008-12-31, 02:49:04,VALID,1007.18,VALID,0,VALID,94.9483,VALID,0,VALID,23.423,VALID,355,VALID,0,
2008-12-31, 02:50:04,VALID,1007.16,VALID,0,VALID,94.9635,VALID,0,VALID,23.3823,VALID,355,VALID,0,
2008-12-31, 02:51:04,VALID,1007.16,VALID,0,VALID,94.9406,VALID,0,VALID,23.4035,VALID,355,VALID,0,
2008-12-31, 02:52:04,VALID,1007.16,VALID,0,VALID,94.9483,VALID,0,VALID,23.3823,VALID,355,VALID,0,
2008-12-31, 02:53:04,VALID,1007.15,VALID,0,VALID,94.9406,VALID,0,VALID,23.4035,VALID,355,VALID,0,
2008-12-31, 02:54:04,VALID,1007.14,VALID,0,VALID,94.9635,VALID,0,VALID,23.3823,VALID,355,VALID,0,
2008-12-31, 02:55:04,VALID,1007.13,VALID,0,VALID,94.9406,VALID,0,VALID,23.361,VALID,355,VALID,0,
2008-12-31, 02:56:04,VALID,1007.12,VALID,0,VALID,94.9635,VALID,0.105969,VALID,23.361,VALID,355,VALID,0,
2008-12-31, 02:57:04,VALID,1007.1,VALID,0,VALID,94.9483,VALID,0,VALID,23.3415,VALID,355,VALID,0,
2008-12-31, 02:58:04,VALID,1007.12,VALID,0,VALID,94.9559,VALID,0.105969,VALID,23.3628,VALID,355,VALID,0,
2008-12-31, 02:59:04,VALID,1007.08,VALID,0,VALID,94.9559,VALID,0,VALID,23.322,VALID,355,VALID,0,
2008-12-31, 03:00:04,VALID,1007.11,VALID,0,VALID,94.9788,VALID,0,VALID,23.3433,VALID,355,VALID,0,
2008-12-31, 03:01:04,VALID,1007.1,VALID,0,VALID,94.9635,VALID,0.105969,VALID,23.3415,VALID,355,VALID,0,
2008-12-31, 03:02:04,VALID,1007.1,VALID,0,VALID,94.9864,VALID,0,VALID,23.3415,VALID,355,VALID,0,
2008-12-31, 03:03:04,VALID,1007.09,VALID,0,VALID,94.9864,VALID,0,VALID,23.322,VALID,355,VALID,0,
2008-12-31, 03:04:04,VALID,1007.1,VALID,0,VALID,95.0016,VALID,0.105969,VALID,23.322,VALID,355,VALID,0,
2008-12-31, 03:05:04,VALID,1007.1,VALID,0,VALID,95.0016,VALID,0,VALID,23.3415,VALID,355,VALID,0,
2008-12-31, 03:06:04,VALID,1007.12,VALID,0,VALID,95.0016,VALID,0,VALID,23.3238,VALID,355,VALID,0,
2008-12-31, 03:07:04,VALID,1007.13,VALID,0,VALID,94.9864,VALID,0,VALID,23.2636,VALID,355,VALID,0,
2008-12-31, 03:08:04,VALID,1007.14,VALID,0,VALID,94.994,VALID,0,VALID,23.2246,VALID,355,VALID,0,
2008-12-31, 03:09:04,VALID,1007.13,VALID,0,VALID,95.0016,VALID,0,VALID,23.2246,VALID,355,VALID,0,
2008-12-31, 03:10:04,VALID,1007.11,VALID,0,VALID,95.0169,VALID,0,VALID,23.2441,VALID,355,VALID,0,
2008-12-31, 03:11:04,VALID,1007.12,VALID,0,VALID,95.0245,VALID,0,VALID,23.2654,VALID,355,VALID,0,
2008-12-31, 03:12:04,VALID,1007.15,VALID,0,VALID,95.0321,VALID,0,VALID,23.2636,VALID,355,VALID,0,
2008-12-31, 03:13:04,VALID,1007.12,VALID,0,VALID,95.0474,VALID,0,VALID,23.2831,VALID,355,VALID,0,
2008-12-31, 03:14:04,VALID,1007.09,VALID,0,VALID,95.055,VALID,0,VALID,23.2831,VALID,355,VALID,0,
2008-12-31, 03:15:04,VALID,1007.11,VALID,0,VALID,95.0626,VALID,0,VALID,23.2831,VALID,355,VALID,0,
2008-12-31, 03:16:04,VALID,1007.14,VALID,0,VALID,95.0626,VALID,0,VALID,23.2848,VALID,355,VALID,0,
2008-12-31, 03:17:04,VALID,1007.14,VALID,0,VALID,95.0703,VALID,0,VALID,23.2636,VALID,355,VALID,0,
2008-12-31, 03:18:04,VALID,1007.13,VALID,0,VALID,95.0779,VALID,0,VALID,23.2831,VALID,355,VALID,0,
2008-12-31, 03:19:04,VALID,1007.11,VALID,0,VALID,95.1084,VALID,0,VALID,23.2848,VALID,355,VALID,0,
2008-12-31, 03:20:04,VALID,1007.08,VALID,0,VALID,95.0931,VALID,0.105969,VALID,23.2831,VALID,355,VALID,0,
2008-12-31, 03:21:04,VALID,1007.11,VALID,0,VALID,95.1084,VALID,0.105969,VALID,23.3043,VALID,355,VALID,0,
2008-12-31, 03:22:04,VALID,1007.11,VALID,0,VALID,95.1008,VALID,0.105969,VALID,23.2636,VALID,355,VALID,0,
2008-12-31, 03:23:04,VALID,1007.07,VALID,0,VALID,95.116,VALID,0.105969,VALID,23.3026,VALID,71,VALID,0,
2008-12-31, 03:24:04,VALID,1007.1,VALID,0,VALID,95.1084,VALID,0.105969,VALID,23.2831,VALID,72,VALID,0,
2008-12-31, 03:25:04,VALID,1007.08,VALID,0,VALID,95.1236,VALID,0,VALID,23.2848,VALID,72,VALID,0,
2008-12-31, 03:26:04,VALID,1007.11,VALID,0,VALID,95.1313,VALID,0,VALID,23.3043,VALID,72,VALID,0,
2008-12-31, 03:27:04,VALID,1007.08,VALID,0,VALID,95.1313,VALID,0,VALID,23.2654,VALID,72,VALID,0,
2008-12-31, 03:28:04,VALID,1007.08,VALID,0,VALID,95.116,VALID,0,VALID,23.2866,VALID,72,VALID,0,
2008-12-31, 03:29:04,VALID,1007.09,VALID,0,VALID,95.1084,VALID,0,VALID,23.2459,VALID,72,VALID,0,
2008-12-31, 03:30:04,VALID,1007.07,VALID,0,VALID,95.1236,VALID,0,VALID,23.2459,VALID,72,VALID,0,
2008-12-31, 03:31:04,VALID,1007.08,VALID,0,VALID,95.116,VALID,0,VALID,23.2671,VALID,72,VALID,0,
2008-12-31, 03:32:04,VALID,1007.05,VALID,0,VALID,95.116,VALID,0,VALID,23.2459,VALID,72,VALID,0,
2008-12-31, 03:33:04,VALID,1007.03,VALID,0,VALID,95.1236,VALID,0,VALID,23.2671,VALID,72,VALID,0,
2008-12-31, 03:34:04,VALID,1007.04,VALID,0,VALID,95.1236,VALID,0,VALID,23.2866,VALID,72,VALID,0,
2008-12-31, 03:35:04,VALID,1007.03,VALID,0,VALID,95.1236,VALID,0,VALID,23.2654,VALID,72,VALID,0,
2008-12-31, 03:36:04,VALID,1007,VALID,0,VALID,95.1313,VALID,0,VALID,23.2654,VALID,72,VALID,0,
2008-12-31, 03:37:04,VALID,1007,VALID,0,VALID,95.1236,VALID,0,VALID,23.2459,VALID,72,VALID,0,
2008-12-31, 03:38:04,VALID,1006.99,VALID,0,VALID,95.116,VALID,0,VALID,23.2264,VALID,123,VALID,0.35625,
2008-12-31, 03:39:04,VALID,1006.99,VALID,0,VALID,95.1389,VALID,0,VALID,23.2264,VALID,123,VALID,0.430469,
2008-12-31, 03:40:04,VALID,1006.97,VALID,0,VALID,95.116,VALID,0,VALID,23.2264,VALID,123,VALID,0.303516,
2008-12-31, 03:41:04,VALID,1007,VALID,0,VALID,95.1236,VALID,0,VALID,23.2264,VALID,123,VALID,0.152344,
2008-12-31, 03:42:04,VALID,1007,VALID,0,VALID,95.116,VALID,0,VALID,23.2264,VALID,123,VALID,0,
2008-12-31, 03:43:04,VALID,1006.98,VALID,0,VALID,95.1236,VALID,0,VALID,23.2264,VALID,123,VALID,0,
2008-12-31, 03:44:04,VALID,1006.97,VALID,0,VALID,95.1389,VALID,0,VALID,23.2264,VALID,123,VALID,0.148438,
2008-12-31, 03:45:04,VALID,1006.95,VALID,0,VALID,95.1236,VALID,0,VALID,23.2051,VALID,123,VALID,0,
2008-12-31, 03:46:04,VALID,1006.94,VALID,0,VALID,95.1389,VALID,0,VALID,23.2264,VALID,123,VALID,0,
2008-12-31, 03:47:04,VALID,1006.95,VALID,0,VALID,95.1236,VALID,0,VALID,23.2264,VALID,123,VALID,0,
2008-12-31, 03:48:04,VALID,1006.95,VALID,0,VALID,95.1313,VALID,0,VALID,23.2264,VALID,123,VALID,0,
2008-12-31, 03:49:04,VALID,1006.94,VALID,0,VALID,95.1389,VALID,0,VALID,23.2264,VALID,123,VALID,0,
2008-12-31, 03:50:04,VALID,1006.93,VALID,0,VALID,95.1236,VALID,0,VALID,23.2264,VALID,123,VALID,0,
2008-12-31, 03:51:04,VALID,1006.93,VALID,0,VALID,95.1313,VALID,0,VALID,23.2069,VALID,123,VALID,0,
2008-12-31, 03:52:04,VALID,1006.93,VALID,0,VALID,95.1313,VALID,0,VALID,23.2264,VALID,122,VALID,0,
2008-12-31, 03:53:04,VALID,1006.93,VALID,0,VALID,95.1542,VALID,0,VALID,23.2866,VALID,118,VALID,0,
2008-12-31, 03:54:04,VALID,1006.93,VALID,0,VALID,95.1465,VALID,0,VALID,23.2264,VALID,118,VALID,0,